星链-1961 (STARLINK-1961 )

导读 | 星芒AI

STARLINK-1961 是 SpaceX Starlink 项目中的第 1961 颗卫星,属于其低轨卫星互联网星座的一部分。该卫星旨在为全球用户提供高速、低延迟的互联网服务,尤其关注网络覆盖不足的地区。它运行在近地轨道,采用先进通信技术,支持 Starlink 系统的持续扩展与优化。该卫星的发射和运行有助于提升 Starlink 的网络容量与稳定性,推动全球宽带接入的发展。

基本信息
目录编号:
47562
目录名称:
STARLINK-1961
国际标识:
2021-009Q
轨道中心:
EARTH
卫星名称:
星链-1961
卫星全名:
星链-1961 (STARLINK-1961 )
卫星状态:
已陨落 最后检测时间 2025-02-12
发射日期:
2021-02-04 UTC
国别 :
美国 (US)
星等 :
--
轨道信息
数据来源 国际轨道数据
星历时间: 2025-02-13T04:32:07+0800
轨道信息已过期306天
半长轴: 6540.852km
偏心率: 0.0006219
轨道倾角: 53.024°
近地点辐角 204.834°
升交点赤经 286.693°
平近点角 223.274°
近地点: 158.649km
远地点: 166.785km
周期: 87.743分钟
每日圈数: 16.411615
详细信息
固有亮度:
5
最大亮度:
2.5
卫星平台:
Starlink V1.0
覆盖范围:
全球
运营商:
太空探索技术公司
运营商所在国:
美国
制造商(研发单位):
太空探索技术公司
制造商所在国:
美国
使用方式:
暂无
卫星简介
星链(Starlink)计划是由太空探索技术公司(SpaceX)提出的一个巨型低轨卫星互联网星座项目,计划在2019年至2024年间在太空搭建由约1.2万颗卫星组成的“星链”网络,其中1584颗将部署在地球上空550千米处的近地轨道,并从2020年开始工作。该卫星仍在工作。